Helicity
-28 -10 -8 9 -4 -13 19 19 -17 13 -11 -19 45 38 13 20 21 2 14 -15 2 7 15 27 7 13 20 31 39 31 31 25 22 19 11 12 8 -1 1 2 7 14 23 24 23 18 18 10 6
1 6 5 19 12 -11 49 19 11 18 35 36 -5 -30 -4 -29 13 19 21 -3 11 10 14 16 7 8 13 29 47 47 31 26 26 23 15 4 2 2 2 -1 10 10 3 15 20 24 15 3 -5
-1 19 44 20 23 28 48 17 56 57 48 5 -30 -7 7 17 -5 4 -38 1 -6 2 5 4 1 -0 11 25 36 41 38 35 31 24 21 10 -0 -0 10 -8 -2 8 3 -7 2 5 9 -1 -6
24 36 46 38 5 68 45 62 64 54 39 -20 20 -17 10 38 -20 -23 1 -4 -8 -11 1 7 -0 -3 3 18 27 27 27 29 32 32 25 21 15 5 -10 -2 3 -3 -0 -4 -13 -6 -3 -6 2
27 72 83 16 69 73 74 82 31 44 46 35 37 29 -0 13 -65 -49 -9 -3 -1 -10 -9 11 3 1 4 15 23 24 16 13 15 13 7 5 4 3 -1 -1 9 -0 -1 -2 -2 -6 -6 -9 -9
62 90 80 20 78 100 66 86 39 41 68 58 81 96 24 -40 -53 -61 -59 -29 -28 -18 -2 2 -5 -5 -1 7 15 18 15 14 14 14 9 -0 -4 -4 -3 -1 6 9 5 1 2 -5 -6 -5 -4
84 92 63 53 125 100 72 67 63 49 64 57 86 88 66 29 -29 -46 -52 -58 -57 -39 -25 -14 -5 -7 -4 3 8 11 11 12 10 9 6 4 6 3 -1 -2 -5 -11 -2 4 -0 -4 -2 7 10
75 79 98 75 82 129 88 79 115 67 141 125 83 57 103 98 12 -0 -24 -39 -37 -30 -31 -21 -16 -2 3 4 -5 -4 -6 -12 -16 -18 -17 -6 2 -4 -6 -0 -12 -16 -14 -13 -3 4 -2 9 19
76 88 91 65 78 128 103 142 203 168 112 147 159 136 160 117 57 42 30 -1 -19 -29 -26 -18 -22 -18 -10 -9 -14 -12 -25 -31 -21 -12 -25 21 4 1 13 28 -5 -9 -13 -18 -21 -22 -23 -5 23
62 93 64 131 104 90 77 96 144 128 148 182 167 163 160 110 79 63 48 34 6 -5 -19 -18 -9 -14 -14 -22 -17 -23 -22 -28 -30 -20 -16 -2 -1 10 19 4 -7 -3 -5 -3 3 4 4 14 1
60 89 86 69 87 76 143 241 211 156 182 129 144 179 136 113 90 79 67 37 26 9 -10 -15 -16 -13 -9 -13 -18 -7 7 5 13 1 -16 -11 -17 -5 -10 1 13 18 37 -15 34 40 28 44 37
64 76 94 83 81 71 58 179 363 249 205 197 189 177 143 116 97 79 78 63 45 25 17 6 -3 -2 16 23 24 35 29 32 36 49 42 32 20 31 32 34 41 37 47 49 38 42 51 34 37
38 76 85 78 99 134 128 226 243 215 183 185 194 184 173 129 105 91 74 60 43 39 31 30 33 38 51 55 65 70 83 90 93 79 83 80 70 73 64 69 62 66 65 63 61 62 63 58 48
57 86 72 66 95 116 163 203 203 198 194 218 193 185 173 131 87 84 76 77 61 57 54 56 56 68 94 151 161 136 121 118 104 103 94 97 88 73 68 77 83 80 69 71 68 74 71 68 70
85 82 81 78 89 160 161 188 217 190 196 216 190 189 169 143 105 101 100 89 80 103 131 170 192 210 186 167 152 152 135 139 121 100 100 96 82 64 70 71 62 66 63 52 61 65 66 63 63
76 72 96 108 96 123 179 129 184 199 206 199 194 183 163 157 123 107 105 92 90 118 159 178 183 214 241 226 205 153 154 143 120 124 93 104 101 114 102 96 97 99 104 103 100 98 90 79 87
100 114 88 113 133 114 136 205 180 203 190 184 173 166 154 148 140 128 110 96 93 112 152 195 218 260 278 298 242 218 231 192 162 151 134 131 104 119 93 98 118 123 131 128 109 108 95 102 82
118 100 80 135 139 134 151 190 189 204 182 164 173 163 155 158 150 135 128 115 106 120 166 202 236 279 289 283 277 250 256 214 159 170 189 147 142 162 139 140 163 150 146 135 129 127 115 102 119
116 76 109 82 198 158 134 153 137 183 181 176 156 158 161 170 163 157 153 133 124 131 166 202 233 214 183 200 162 154 173 159 182 164 157 162 171 178 180 160 130 97 99 91 95 84 78 89 79
176 199 106 175 133 199 210 155 112 134 151 151 159 156 157 155 157 175 173 159 152 138 145 177 195 171 176 149 163 161 152 152 142 162 184 195 197 180 148 116 93 86 61 68 69 69 61 63 50
128 141 124 108 228 317 165 218 141 145 148 157 151 146 144 132 151 166 166 167 156 153 154 162 151 149 152 144 124 131 148 144 148 152 160 165 133 116 102 87 71 61 60 56 61 66 70 52 54
115 101 209 85 104 176 254 251 63 99 135 165 183 160 132 152 175 181 157 141 146 171 184 173 161 155 146 126 115 110 113 113 114 97 82 86 97 82 69 60 56 51 42 48 39 40 42 49 58
140 62 87 138 108 158 116 263 150 25 122 142 195 150 147 164 176 182 167 161 175 188 201 189 173 156 140 124 106 94 89 79 72 68 65 62 61 65 57 46 44 41 41 47 54 55 56 47 52
127 128 101 124 121 154 115 120 100 190 59 116 152 155 179 220 229 205 180 178 194 198 190 171 156 147 141 131 128 113 91 79 66 63 62 56 48 47 56 55 54 64 64 59 52 49 56 52 50
93 125 193 214 226 208 121 111 129 82 112 80 123 188 229 273 266 212 168 162 175 168 158 141 122 126 135 138 135 117 104 88 73 62 54 44 46 51 66 65 70 59 50 39 31 37 39 41 39
104 116 233 197 230 153 111 113 120 32 36 17 66 127 220 292 283 199 167 188 164 148 120 115 103 113 119 109 96 83 74 68 67 63 51 56 61 61 56 56 53 44 39 36 26 30 34 37 39
91 125 85 128 76 88 125 115 116 165 178 143 92 239 202 260 244 186 193 159 152 122 96 85 92 101 95 90 85 80 71 69 66 59 62 63 57 50 51 47 44 41 47 43 34 34 41 37 42
66 68 119 90 160 147 118 95 134 100 176 180 221 238 205 239 323 215 180 155 127 108 99 95 84 80 80 79 75 73 68 63 60 64 70 64 56 52 51 47 44 45 48 44 33 20 30 30 34
114 126 107 96 147 153 139 109 79 75 70 118 173 307 251 342 319 290 200 167 138 114 108 95 80 85 84 79 82 73 72 69 69 70 70 70 63 59 55 43 38 41 39 32 19 17 29 28 30
22 68 96 213 153 154 134 76 153 83 101 122 173 291 232 334 284 327 249 197 153 127 119 95 90 90 93 91 85 87 84 76 78 80 76 67 60 48 42 32 30 33 25 18 22 19 9 12 12
Wind_Speed
35 28 32 29 36 36 19 20 21 25 22 21 39 30 23 13 20 17 57 54 57 56 56 57 55 52 52 55 57 57 58 57 55 53 49 48 47 44 47 45 47 48 51 51 46 39 34 29 22
34 32 33 32 44 19 16 18 17 20 25 32 34 35 18 14 26 56 59 59 60 55 57 56 55 53 53 55 57 58 57 55 54 52 51 49 48 44 19 49 40 42 49 50 45 44 44 40 34
35 36 36 36 46 39 19 23 16 25 30 27 21 10 20 21 56 58 56 62 61 58 56 55 55 54 54 54 55 55 55 54 53 52 51 50 46 31 23 43 33 14 11 29 43 45 45 42 38
40 35 37 39 38 30 25 7 20 24 20 15 25 21 15 28 52 52 61 61 60 58 57 56 55 53 52 51 52 52 52 52 52 51 50 50 49 48 42 32 33 29 20 14 21 33 34 33 32
40 40 38 39 27 26 18 6 20 12 14 21 29 27 16 31 51 51 55 58 58 57 56 57 54 52 51 49 49 50 49 48 48 48 48 48 48 48 47 41 37 33 29 23 19 18 20 21 21
41 41 35 28 22 19 11 7 7 7 7 19 25 23 12 38 45 50 49 52 53 53 55 55 53 51 49 48 47 47 46 46 45 44 44 44 44 45 45 45 44 40 36 31 26 22 20 20 22
47 42 47 49 21 21 14 5 8 3 5 13 14 13 11 23 35 43 45 47 49 50 49 51 51 49 48 46 45 44 44 43 43 42 41 41 43 42 42 42 42 42 42 40 37 30 23 27 31
44 43 48 40 27 30 18 11 16 9 14 11 9 14 15 19 28 30 33 34 38 41 42 46 46 46 45 45 43 42 41 40 39 38 36 35 37 37 39 38 38 37 36 35 35 34 33 34 36
42 50 52 42 38 30 20 17 23 18 4 23 21 9 15 24 24 24 26 26 26 31 35 38 40 41 42 41 41 40 39 38 37 36 33 31 29 29 31 30 31 31 30 28 26 24 21 21 33
46 53 50 40 36 30 25 24 20 17 6 11 7 11 18 21 22 20 23 21 24 25 28 30 30 33 35 37 36 35 35 34 33 31 30 29 28 29 30 27 30 27 25 23 20 18 15 13 12
42 54 41 39 37 26 27 29 31 17 20 20 3 8 10 12 13 14 18 22 21 22 22 24 25 26 29 28 30 29 28 29 29 29 28 26 26 19 31 34 13 28 23 31 21 23 22 39 44
51 48 46 38 34 28 27 24 25 38 24 13 6 2 2 2 6 9 11 12 15 18 18 20 20 21 22 22 22 23 24 25 26 28 30 28 25 28 29 30 32 29 37 41 42 45 46 49 49
53 43 41 37 31 29 25 29 29 25 16 14 12 8 3 4 6 9 10 13 15 14 14 14 15 15 16 18 19 20 23 26 28 30 33 34 33 33 34 33 34 35 36 36 37 40 45 50 51
46 42 34 32 30 25 26 27 34 30 19 15 15 14 10 7 10 13 12 14 14 15 15 13 13 14 15 20 21 21 23 25 28 31 35 36 35 37 37 38 40 42 44 46 46 47 48 49 52
37 43 37 36 34 37 25 38 41 26 21 20 18 19 19 17 18 22 23 20 14 15 16 18 17 17 16 18 21 23 24 28 28 31 36 38 38 38 38 38 41 45 47 49 50 52 51 51 50
45 45 52 43 41 40 50 52 37 30 27 26 24 22 22 23 24 23 24 21 17 15 16 17 16 16 15 18 21 22 24 27 29 32 35 38 39 40 40 40 44 48 47 51 53 53 55 55 55
55 54 56 48 44 44 53 45 40 32 31 29 27 23 22 23 24 24 21 20 18 16 16 17 17 16 16 19 21 21 25 28 31 34 35 39 41 41 41 43 45 48 48 51 53 53 54 55 58
60 72 52 53 49 46 49 49 37 36 34 33 29 27 23 22 22 22 22 20 18 16 16 17 17 16 17 18 20 20 26 28 28 34 37 36 40 42 42 45 49 48 49 51 52 53 53 51 60
71 68 64 57 48 45 50 47 42 38 38 38 33 30 28 25 22 22 22 20 19 17 16 17 15 15 16 16 18 21 22 26 29 33 34 38 40 44 45 45 47 46 48 50 53 53 54 54 64
77 73 72 51 53 55 50 49 43 45 44 42 39 36 32 27 25 24 23 22 22 19 17 16 17 18 19 20 20 20 21 24 27 30 35 39 41 43 43 44 45 47 46 50 53 55 55 54 60
87 80 73 62 51 52 50 56 53 50 51 47 45 40 35 32 27 25 22 21 20 20 18 17 17 16 18 17 16 18 20 23 26 30 33 37 38 40 42 43 44 45 47 49 52 55 56 55 55
93 81 75 70 63 74 64 85 69 54 53 59 52 47 43 35 29 25 24 21 19 19 17 16 16 16 17 17 17 17 21 22 25 27 29 33 37 39 41 43 44 46 47 50 51 53 54 56 57
91 73 74 78 80 62 67 77 89 59 66 59 55 53 44 38 32 27 23 20 19 18 18 16 16 16 17 17 17 17 18 20 22 25 28 31 35 39 41 43 44 46 47 49 51 53 55 54 56
70 69 69 70 77 91 86 80 81 74 60 56 53 54 50 41 35 28 22 19 20 19 17 15 15 14 15 16 17 17 17 19 21 24 27 30 34 37 41 42 44 47 48 50 51 53 55 56 56
66 70 74 83 85 100 81 82 88 63 69 60 53 52 48 44 37 31 28 26 21 16 12 10 9 10 12 14 15 16 17 19 21 25 27 29 33 36 40 42 45 46 48 49 50 53 55 57 58
74 77 86 94 93 101 86 92 102 88 48 51 51 47 49 48 40 35 30 25 20 16 10 8 6 7 9 10 12 14 16 19 22 25 27 29 32 35 38 41 43 45 48 50 51 52 55 57 58
64 89 84 89 91 98 81 89 75 67 74 56 42 37 43 45 45 39 32 25 20 16 11 8 7 6 6 8 11 13 16 18 21 24 27 29 31 34 37 40 42 45 49 52 52 54 58 59 60
74 67 90 93 103 107 99 108 98 74 71 60 53 46 40 39 40 41 36 27 21 15 13 12 8 5 3 6 9 12 15 18 20 23 26 28 31 34 37 39 42 45 50 53 54 55 58 60 61
63 82 78 86 91 103 110 117 84 78 65 61 55 47 48 45 42 40 36 31 23 17 15 11 8 5 4 6 7 10 14 17 20 22 25 28 31 34 37 39 41 46 50 53 55 56 59 61 63
64 68 73 85 97 102 104 107 50 66 62 60 56 48 48 46 48 40 38 33 29 22 16 14 10 8 5 4 6 9 12 15 18 21 24 27 30 33 36 38 41 47 50 53 56 57 59 62 65
Wind_Direction
301 321 295 311 264 258 344 333 342 30 8 338 74 157 191 259 218 244 128 137 115 111 112 121 126 129 127 120 110 113 107 96 93 97 108 106 113 125 116 123 119 122 117 95 72 56 50 45 34
294 299 295 304 253 306 328 312 350 358 31 48 43 48 201 235 160 96 119 131 120 108 117 116 125 128 128 122 109 105 107 101 96 90 90 89 92 84 112 100 139 140 103 94 73 72 70 65 53
289 286 287 284 254 267 307 283 38 57 60 42 12 323 184 182 103 105 123 125 121 117 116 110 124 127 128 124 113 107 106 104 101 99 93 86 65 25 2 61 31 332 300 38 73 77 78 72 60
279 284 284 274 269 282 286 23 78 73 43 299 44 14 200 168 117 123 120 125 124 121 118 115 123 129 131 128 122 116 110 105 104 104 103 98 94 85 58 27 36 26 6 349 26 57 60 56 48
276 275 277 272 279 275 288 66 86 56 23 43 66 54 15 177 111 95 110 122 123 123 118 123 127 131 133 133 124 118 119 115 109 105 105 106 107 105 93 56 49 42 36 24 16 15 17 18 2
273 273 275 267 273 284 283 113 319 325 11 41 69 62 335 120 92 104 106 112 118 116 122 125 128 131 133 133 128 121 116 113 112 114 111 108 108 105 109 110 93 72 61 52 37 19 5 342 315
267 271 268 264 260 270 262 218 294 319 11 346 60 28 341 62 81 95 99 107 112 114 112 121 130 132 133 132 129 125 119 117 113 108 115 113 101 103 105 101 99 103 108 106 103 85 8 285 265
269 273 268 266 257 263 255 240 270 266 289 324 319 325 73 76 79 77 81 84 93 101 101 115 125 130 131 132 136 129 121 117 121 129 135 133 119 111 91 101 82 99 98 105 126 144 154 182 210
273 265 263 263 260 260 243 240 272 290 309 280 293 32 76 90 82 75 76 75 80 89 99 104 111 119 129 129 123 126 129 133 131 123 134 153 176 173 139 7 66 89 89 91 98 102 99 184 210
264 264 265 271 264 257 239 248 253 263 263 298 351 57 91 92 90 83 86 81 88 88 92 98 95 105 115 122 116 114 111 112 150 174 182 187 206 227 218 214 194 149 115 117 101 91 81 96 67
269 265 269 268 265 249 245 252 256 235 259 269 194 115 101 90 80 75 78 91 91 91 88 96 98 101 106 95 103 91 73 84 76 89 121 99 150 223 219 246 285 292 38 208 32 6 8 321 315
265 268 270 266 262 249 239 244 247 259 263 260 250 154 117 75 60 57 49 42 62 81 83 93 91 93 87 77 73 58 58 51 43 24 16 30 49 27 15 8 351 1 326 313 313 305 308 304 308
261 268 269 267 260 252 245 245 248 255 256 253 246 247 263 299 320 326 3 23 43 45 46 49 55 62 67 69 56 38 21 9 5 3 355 349 354 354 351 351 350 345 344 342 336 330 321 315 313
263 264 265 260 255 243 235 241 254 253 249 240 240 249 266 286 293 294 313 328 16 25 28 31 39 46 24 358 1 10 9 8 0 355 348 344 344 340 338 336 332 330 328 327 326 325 323 321 318
260 259 262 255 247 252 230 251 250 241 239 236 245 255 261 272 283 285 290 305 349 1 7 350 351 357 359 4 5 3 360 3 359 355 349 344 344 341 340 338 335 331 329 327 325 323 322 321 321
254 255 253 250 247 250 250 248 245 241 236 238 246 253 259 267 278 291 297 310 329 346 344 348 349 348 354 356 1 7 8 7 359 352 351 346 344 341 339 338 333 332 333 331 328 327 324 322 322
249 253 249 253 248 253 247 249 241 238 237 240 245 249 256 266 279 292 305 317 327 339 341 344 348 346 343 345 358 2 2 2 349 346 345 342 343 343 343 342 341 337 338 336 332 331 331 327 325
250 249 250 251 247 249 245 255 236 235 238 242 243 249 254 263 276 290 301 316 329 341 342 342 342 342 342 347 355 360 352 355 349 349 345 347 348 346 347 346 343 342 342 340 339 338 338 337 332
258 251 251 253 250 245 246 249 239 235 239 242 244 246 253 261 274 287 299 312 318 329 333 334 340 344 346 351 356 356 351 348 348 353 354 351 349 348 346 348 348 349 349 347 346 344 342 341 337
251 252 249 253 252 248 248 248 242 241 242 243 244 245 250 257 267 280 291 301 309 316 323 329 331 331 331 341 349 349 353 353 354 354 351 349 350 350 351 352 352 351 351 350 348 347 346 348 348
247 249 249 250 251 255 248 252 247 246 246 246 247 249 251 255 261 272 283 295 306 314 321 325 328 332 341 354 5 359 358 353 348 346 350 352 355 356 357 359 0 0 359 357 354 353 353 351 356
247 248 254 251 245 251 247 254 249 243 244 245 245 247 251 254 259 265 273 284 298 311 325 332 336 338 342 350 348 346 339 340 348 356 1 0 1 4 4 3 1 359 359 358 359 359 358 357 354
251 252 251 252 249 253 249 252 255 242 245 238 239 244 248 251 256 260 267 278 291 305 313 324 332 342 352 356 355 355 354 1 2 3 6 9 8 5 2 358 358 359 2 3 1 1 1 3 358
254 253 252 251 251 249 248 249 252 243 234 238 238 242 246 246 251 254 263 272 283 294 304 315 319 340 349 347 350 356 353 357 0 3 4 5 3 0 358 360 1 2 4 4 3 3 2 2 359
249 242 242 245 243 246 248 247 251 252 249 241 234 233 238 240 240 244 250 261 270 278 293 309 324 333 346 348 357 4 2 5 4 1 2 4 359 356 357 0 2 4 5 6 5 3 2 360 357
244 240 240 245 244 250 252 248 249 251 256 254 242 234 236 234 235 238 243 251 256 260 268 288 306 328 332 342 354 7 6 3 2 1 3 0 358 1 0 3 6 7 7 4 4 4 0 359 357
250 242 243 251 254 255 252 254 257 256 256 253 241 225 223 230 234 236 239 244 243 245 250 254 270 289 315 345 351 351 359 359 5 10 8 6 7 6 6 8 8 7 4 2 3 2 358 358 357
251 250 244 247 249 250 250 249 251 252 255 251 239 226 218 217 221 227 231 234 235 236 240 248 252 260 307 338 347 350 359 8 14 11 8 10 13 11 9 9 10 7 4 4 3 1 360 359 357
252 250 247 248 248 250 251 250 255 258 254 252 243 229 224 217 213 214 220 224 226 227 232 229 229 235 271 314 347 1 4 6 7 9 9 9 13 13 9 11 10 6 5 3 2 2 360 358 357
257 250 247 245 246 250 254 252 271 262 257 255 245 229 224 218 209 206 209 212 222 225 218 220 221 230 255 308 347 3 2 5 5 4 5 7 10 13 14 13 10 7 5 4 2 1 360 358 357